Regional Weather Roundup
Issued by NWS

Home | Current Version | Previous Version | Graphics & Text | Print | Product List | Glossary On
Versions: 1 2 3 4 5 6 7 8 9 10 11 12 13 14 15 16 17 18 19 20 21 22 23 24 25 26 27 28
000
ASUS45 KCYS 220310
RWRWY

WYOMING REGIONAL WEATHER ROUNDUP
NATIONAL WEATHER SERVICE CHEYENNE WY
800 PM MST TUE FEB 21 2017

NOTE:  "FAIR" INDICATES FEW OR NO CLOUDS BELOW 12,000 FEET
WITH NO SIGNIFICANT WEATHER AND/OR OBSTRUCTIONS TO VISIBILITY.

WYZ001-220400-
YELLOWSTONE NATIONAL PARK

CITY           SKY/WX    TMP DP  RH WIND       PRES   REMARKS
LK YELLOWSTONE   N/A     25  22  88 VRB6      29.85F WCI  18
W YELLOWSTONE  NOT AVBL

$$
WYZ002>013-054>058-071-098>099-220400-
NORTHERN WYOMING

CITY           SKY/WX    TMP DP  RH WIND       PRES   REMARKS
JACKSON        CLOUDY    30  27  86 S22       29.93R WCI  17
CODY           FAIR      40  25  55 W13G18    29.79F WCI  32
GREYBULL       FAIR      39  31  72 W7        29.75F WCI  34
WORLAND        MOCLDY    43  34  70 VRB3      29.77F
SHERIDAN       FAIR      50  24  36 SW41G56   29.70F
BUFFALO        CLOUDY    50  20  30 W9        29.77S
GILLETTE       CLOUDY    48  36  63 W8        29.73F
HULETT         CLOUDY    50  32  50 SW10      29.73S
NEWCASTLE      FAIR      50  30  46 N12       29.76F

$$
WYZ014>020-022>026-101>103-220400-
CENTRAL WYOMING

CITY           SKY/WX    TMP DP  RH WIND       PRES   REMARKS
BIG PINEY      LGT SNOW  28  27  96 NW5       29.97R WCI  23
PINEDALE       CLOUDY    30  27  86 NW10      29.98R WCI  21
DUBOIS         CLOUDY    28  21  74 W18       29.85F WCI  16
LANDER         CLOUDY    32  32 100 SE12      29.87F WCI  23
RIVERTON       FAIR      37  26  64 NW21      29.86R WCI  26
CASPER         LGT RAIN  41  37  86 W21G33    29.81R
DOUGLAS        FAIR      52  30  43 SW20G35   29.79F

$$
WYZ021-027>030-104>119-220400-
SOUTHERN WYOMING

CITY           SKY/WX    TMP DP  RH WIND       PRES   REMARKS
EVANSTON       LGT SNOW  29  26  89 N14       30.02R VSB 3/4 WCI  18
KEMMERER         N/A     28  27  93 NW22      29.98S WCI  15
FORT BRIDGER   LGT SNOW  31  31 100 N14       30.01S WCI  20
ROCK SPRINGS   MIX PCPN  33  29  85 N20G29    29.95R WCI  21
DIXON            N/A     45  31  58 S18G33    29.94F
RAWLINS        MOCLDY    44  31  60 SW23G37   29.86F
SARATOGA       FAIR      45  28  53 SW28G39   29.90F
LARAMIE        FAIR      36  22  56 SW13      29.92F WCI  27
CHEYENNE       FAIR      45  17  32 SW9       29.92F
TORRINGTON     FAIR      53  21  28 W10       29.81F
PINE BLUFFS    FAIR      46  18  31 SW17G26   29.87F

$$




USA.gov is the U.S. government's official web portal to all federal, state and local government web resources and services.